Погода в Тихвине

Хотите узнать прогноз погоды в Тихвине? Тогда Вам сюда: Погода в Тихвине

Поиск расширенной информации на нашем сайте:

Полезная информация:

Новости сайта



02.01.2020
Опубликован Долгосрочный прогноз погоды по городам России и ближнего зарубежья на январь 2020 года.
Карты: Прогноз на январь и февраль 2020 года, Сравнение прогнозируемой аномалии приземной температуры воздуха на январь 2020 года по разным моделям.




Погода в Тихвине - сегодня

Время (UTC), дата Ветер
(°,м/с) 
Видим.   Явления Облачность Т
(°С)
Тd
(°С)
f(%) Тe
(°С)
Pmin
(гПа)
dP
(гПа)
Po
(мм)
O2
(г/м3)
Тmin Tmax R s Состояние
почвы
09 16.01.21 350 (С) 10 км    8/0 средняя, верхняя 
[Ac trans|Cs]
-20.3 -23 79 -21  1016.6  756  331           
12 16.01.21 320 (СЗ) 10 км    9/0 средняя, верхняя 
[Ac trans|Cc]
-19 -21.6 80 -22  1016.2  -0.4  756  329           
15 16.01.21 340 (С) 10 км    1/0 средняя 
[Ac trans]
-20.6 -22.9 82 -21  1016.3  0.1  756  331           
18 16.01.21 тихо ()   10 км    ясно 
-22.9 -25.4 80 -23  1016.6  0.2  756  334    -18.6       
21 16.01.21 тихо ()   10 км    ясно 
-26.7 -29.2 79 -27  1017.1  0.5  756  340           
00 17.01.21 тихо ()   10 км    ясно 
-28.1 -30.7 78 -28  1017.8  0.5  757  342           
03 17.01.21 тихо ()   10 км  снежные кристаллы  10/0 средняя 
[As op]
-23.6 -26.3 78 -24  1017.5  -0.1  757  336  -28.3    0.0     
06 17.01.21 180 (Ю) 10 км  {снег}  10/0 средняя 
[Ac und]
-22.3 -24.8 80 -23  1017.3  -0.2  757  334  -28.3    0.0  24  равномерный
сухой снег
100% 
09 17.01.21 190 (Ю) 6000 м  слаб. снег  10/10 300 м 
[Frnb|Ns]
-18.6 -20.8 83 -19  1017.7  0.5  757  329           
12 17.01.21 190 (Ю) 3000 м  слаб. снег  10/10 360 м 
[Frnb|Ns]
-14.8 -16.5 87 -15  1016.9  -0.6  756  324           
15 17.01.21 200 (Ю) 2000 м  дымка{снег}  10/10 330 м 
[St]
-13.6 -15.2 88 -14  1016.8  -0.1  756  322      0.3     
18 17.01.21 200 (Ю) 2000 м  дымка{снег}  10/10 300 м 
[St]
-12.5 -13.9 89 -12  1017  0.2  757  321    -12.5  0.3     
21 17.01.21 200 (Ю) 4000 м  дымка  10/10 360 м 
[St]
-12.1 -13.5 89 -12  1017.2  0.2  757  320           
00 18.01.21 210 (ЮЗ) 4000 м  дымка  10/10 360 м 
[St]
-11.9 -13.3 89 -12  1016.8  -0.3  756  320           
03 18.01.21 210 (ЮЗ) 4000 м  снежные кристаллы [диам. изморози 3 мм]  10/10 300 м 
[Frnb|Ns]
-11.7 -13.1 89 -12  1016.5  -0.3  756  320  -13.5    0.0     
06 18.01.21 200 (Ю) 2000 м  снег [диам. изморози 3 мм]  10/10 240 м 
[Frnb|Ns]
-11.5 -12.9 89 -11  1016.9  0.4  757  319  -12.5    0.4  25  равномерный
сухой снег
100% 
09 18.01.21 230 (ЮЗ) 10 км  {снег}  10/10 420 м 
[St]
-10 -11.3 90 -10  1017.6  0.7  757  318           
12 18.01.21 190 (Ю) 10 км  {снег}  10/10 360 м 
[St]
-9.2 -10.5 90 -9  1017.3  -0.4  757  317           
15 18.01.21 190 (Ю) 10 км    10/10 360 м 
[St]
-9.4 -10.6 91 -9  1017.4  0.2  757  317      0.9     
18 18.01.21 190 (Ю) 4000 м  дымка  10/10 300 м 
[St]
-9 -10.2 91 -9  1017.2  -0.2  757  316    -9  0.5     
21 18.01.21 180 (Ю) 4000 м    10/10 300 м 
[St]
-8.7 -9.8 92 -8  1017.3  0.2  757  316           
00 19.01.21 200 (Ю) 4000 м  дымка  10/10 300 м 
[St]
-8.5 -9.6 92 -8  1016.8  -0.5  757  316           
03 19.01.21 190 (Ю) 4000 м  снежные кристаллы [диам. изморози 3 мм]  10/10 800 м 
[Ns]
-8.3 -9.4 92 -8  1016.2  -0.6  756  315  -9.4    0.0     
06 19.01.21 190 (Ю) 10 км  снежные кристаллы  10/0 средняя 
[As op]
-8.7 -9.9 91 -8  1016  -0.2  756  316  -9    0.0  25  равномерный
сухой снег
100% 
09 19.01.21 180 (Ю) 9000 м  слаб. снег [диам. изморози 3 мм]  10/0 средняя 
[As op]
-7.4 -8.8 90 -7  1015.9  -0.1  756  314           
Время (UTC), дата Ветер
(°,м/с) 
Видим.   Явления Облачность Т
(°С)
Тd
(°С)
f(%) Тe
(°С)
Pmin
(гПа)
dP
(гПа)
Po
(мм)
O2
(г/м3)
Тmin Tmax R s Состояние
почвы

Для получения пояснительной информации подведите курсор к названию столбца.

ПОГОДА в Тихвине - архив

Всё, что Вы хотите узнать о погоде в Тихвине - удобно и подробно!

Выберите нужную дату (начиная с 1 января 2019* года) и нажмите кнопку "Найти".
Будут отображены архивные сводки погоды по пункту Тихвин, начиная с указанной даты.


Отображать данные в формате CSV (для использования в таблицах Excel)


Внимание! Наш архив погоды предназначен исключительно для личного некоммерческого использования в познавательных целях. Если Вам необходимы официальные справки о состоянии погоды (для производственных, юридических, коммерческих и т.п. целей), обращайтесь в органы Росгидромета.

*Примечание: данная дата относится к архиву по метеостанциям СССР (Россия, СНГ, Балтия).
Архив по метеостанциям Зарубежной Европы и Азии (кроме Китая) хранится 10 дней, по другим регионам земного шара (Китай, Африка, Америка, Австралия, Океания) - 1 день.

Тихвин - район местоположения метеостанции


Название, широта, долгота, высота метеостанции:
Тихвин 59.6°ш. 33.6°д. 61 м над ур. моря [Российская Федерация]

Дополнительная информация

В oтличие oт бoльшинства пoгoдных сайтoв мы публикуем пoдрoбную метеoинфoрмацию в детальнoм прoфессиoнальнoм фoрмате.

Характеристики температуры и влажнoсти вoздуха измеряются на высoте 2 м в тени вдали oт зданий и деревьев.
Скoрoсть ветра измеряется на высoте 10 м (на урoвне рoста челoвека скoрoсть ветра ниже в 1.5-2 раза). Если метеoстанция нахoдится в гoрoде или в лесу, тo скoрoсть ветра занижена на 2-4 м/с пo сравнению с oткрытым местoм. Скoрoсть ветра над акватoриями крупных рек и oзёр, а также на вершинах хoлмoв на 2-5 м/с выше, чем в oбычных услoвиях.
Атмoсфернoе давление в разных тoчках местнoсти мoжет значительнo oтличаться oт давления на метеoстанции, в зависимoсти oт услoвий рельефа (при пoдъёме на 10 м давление пoнижается примернo на 1 мм рт.ст.).